STARLINK-11739, 64374

Orbit data source: Space-Track

STARLINK-11739, 64374 is a payload satellite owned by SpaceX/Seattle (US) in LEO that was launched on Fri, 13 Jun 2025 UTC via an FALCON 9 launch vehicle from the Air Force Eastern Test Range (AFETR). Payload-class satellites include a variety of spacecraft equipped with specific instruments for various scientific and technological missions. These include communications satellites like Starlink; space stations such as the ISS; scientific satellites like the Hubble; Earth observation satellites from companies like Planet Labs, Umbra, and HawkEye 360; GPS; miniature CubeSats for education and research; and military/defense satellites.

Loading next visibility...
Identifier
64374, 2025-127E
Orbit
LEO
Country
Flag of USUS
Related business
Manufacturer
SpaceX/Seattle
Mission
Operational Commercial Communications
Bus & Motor
STARLINK V2MD, Unknown motor
Mass
960 kg wet, ~910 kg dry
Launch date (UTC)
2025-06-13 (1 year ago)
Launch vehicle
FALCON 9
Launch site
Air Force Eastern Test Range (AFETR)
Object type
Payload
Rocket body
Debris
Shape & HBR
Box + 2 Pan, 18.1 m
Radar Cross Section
36.964 m², Large (>1 m²)

Expand to show TLE details & history
Last TLE update: 21 hours ago

TLE from 21 hours ago
0 STARLINK-11739
1 64374U 25127E   26171.10278681  .00180087  00000-0  13773-2 0  9998
2 64374  43.0004 186.8340 0003017 284.1583  75.8950 15.70828159 59610
Epoch: 2026-06-20T02:28Z
TLE epoch observation values (Epoch: 2026-06-20T02:28:00.780Z)
Latitude
0.00003°
Longitude
-118.49144°
Altitude
355.806 km
Speed
7.698 km/s
True Right ascension
12h 27m 20s
True Declination
0° 00' 00"
Sunlit
Object was in daylight at epoch
Visualization orbit readout
Latitude
Unknown
Longitude
Unknown
Altitude
Unknown
Speed
Unknown
Apparent Right ascension
Unknown
Apparent Declination
Unknown
Sunlit
N/A
Visualization observer readout
Local Sidereal Time
10:18:35
Azimuth
Unknown
Elevation
Unknown
Doppler factor
Unknown
Orbital elements
Apogee altitude
360.543 km
Perigee altitude
356.478 km
Semi-major axis
6,736.647 km
Eccentricity
0.0003
Inclination
43.0004°
RAAN
186.834°
Arg. of periapsis
284.1583°
True anomaly
75.92853°
Mean anomaly
75.895°
Eccentric anomaly
75.91177°
Mean motion
3.92534 °/min
Orbital period
91.71 mins
BSTAR
0.0013773
Loading maneuver chart data...
Computing Atmospheric mass density...
Loading historical data...
Loading historical data...
Loading historical data...
Loading historical data...
Loading historical data...
Loading historical data...
Loading historical data...

Documentation

Showing up to 5 results
|